Terminal Aerodrome Forecast
Issued by NWS Greer, SC

Home | Current Version | Previous Version | Text Only | Print | Product List | Glossary On
Versions: 1 2 3 4 5 6 7 8 9 10 11 12 13 14 15 16 17 18 19 20 21 22 23 24 25 26 27 28 29 30 31 32 33 34 35 36 37
000
FTUS42 KGSP 300527
TAFAVL
TAF
KAVL 300527Z 3006/3106 30004KT 6SM BR FEW040 SCT060
     FM300700 33004KT 4SM BR SCT040
      TEMPO 3010/3012 33004KT 2SM BR BKN024
     FM301200 35005KT P6SM VCSH SCT030 BKN120
     FM301500 35006KT P6SM SCT060 BKN150 PROB30 3015/3019 4SM TSRA
      BKN040CB
     FM302000 34009KT P6SM BKN250=

USA.gov is the U.S. government's official web portal to all federal, state and local government web resources and services.